Home   Weather   Derby   Past weeks

Flag for United Kingdom Past Weather in Derby, England, United Kingdom — Yesterday and Last 2 Weeks

Now
64 °F

Partly sunny.


Feels Like: 64 °F
Forecast: 53 / 66 °F
Wind: 16 mph from Southwest

Location: East Midlands

Current Time: Sep 28, 2016 at 2:41:40 PM

Latest Report: Sep 28, 2016 at 1:50 PM


Visibility: N/A

Pressure: 30.15 "Hg

Humidity: 83%

Dew Point: 59 °F

Location of DerbyLocation

Past Weather in Derby — Graph

°F

Derby Temperature Yesterday

Maximum temperature yesterday: 66 °F (at 1:50 PM)
Minimum temperature yesterday: 55 °F (at 12:20 AM)
Average temperature yesterday: 60 °F

High & Low Weather Summary for the Past Weeks

 TemperatureHumidityPressure
High84 °F (Sep 13, 1:50 PM)100% (Sep 14, 8:20 AM)30.24 "Hg (Sep 14, 8:20 AM)
Low46 °F (Sep 18, 6:20 AM)43% (Sep 13, 2:20 PM)29.68 "Hg (Sep 25, 3:50 AM)
Average59 °F81%30.04 "Hg
* Reported Sep 13 1:20 PM — Sep 28 1:20 PM, Derby, Weather by CustomWeather, © 2016

Note: Actual official high and low records may vary slightly from our data, if they occured in-between our weather recording intervals... More about our weather records

Advertising

Derby Weather History for the Previous 24 Hours

Scroll right to see more
 ConditionsComfort  
Time TempWeatherWind HumidityBarometerVisibility
1:20 PM
Wed, Sep 28
64 °FPartly sunny.17 mph83%30.15 "HgN/A
12:50 PM64 °FPartly sunny.18 mph83%30.15 "HgN/A
12:20 PM64 °FPartly sunny.18 mph78%30.15 "HgN/A
11:50 AM64 °FScattered clouds.20 mph78%30.15 "HgN/A
11:20 AM64 °FScattered clouds.17 mph73%30.15 "HgN/A
10:50 AM63 °FSunny.18 mph73%30.18 "Hg10 mi
10:20 AM61 °FSunny.15 mph77%30.18 "Hg10 mi
9:50 AM59 °FSunny.16 mph77%30.18 "Hg10 mi
9:20 AM57 °FSunny.15 mph82%30.18 "Hg10 mi
8:50 AM57 °FSunny.12 mph77%30.18 "Hg10 mi
8:20 AM55 °FSunny.10 mph82%30.18 "Hg10 mi
7:50 AM55 °FSunny.9 mph82%30.18 "Hg10 mi
7:20 AM55 °FSunny.9 mph82%30.18 "Hg10 mi
6:50 AM55 °FClear.8 mph82%30.18 "Hg10 mi
6:20 AM54 °FClear.9 mph88%30.18 "Hg10 mi
5:50 AM54 °FClear.12 mph88%30.18 "Hg10 mi
5:20 AM54 °FClear.10 mph88%30.18 "Hg10 mi
4:50 AM54 °FClear.9 mph88%30.18 "Hg10 mi
4:20 AM54 °FClear.9 mph88%30.18 "Hg10 mi
3:50 AM54 °FClear.12 mph88%30.18 "Hg10 mi
3:20 AM54 °FClear.14 mph82%30.18 "Hg10 mi
2:50 AM55 °FClear.16 mph77%30.18 "Hg10 mi
2:20 AM55 °FClear.17 mph82%30.18 "Hg10 mi
1:50 AM55 °FClear.15 mph82%30.18 "Hg10 mi
1:20 AM55 °FClear.18 mph82%30.18 "Hg10 mi
12:50 AM55 °FClear.15 mph82%30.18 "Hg10 mi
12:20 AM55 °FClear.13 mph82%30.18 "Hg10 mi
11:50 PM
Tue, Sep 27
55 °FClear.8 mph88%30.18 "Hg10 mi
11:20 PM57 °FPassing clouds.5 mph82%30.18 "HgN/A
10:50 PM57 °FClear.7 mph82%30.18 "Hg10 mi
10:20 PM57 °FClear.8 mph82%30.18 "Hg10 mi
9:50 PM59 °FPassing clouds.7 mph82%30.18 "HgN/A
9:20 PM59 °FClear.12 mph82%30.18 "Hg10 mi
8:50 PM61 °FClear.12 mph77%30.18 "Hg10 mi
8:20 PM61 °FClear.13 mph77%30.18 "Hg10 mi
7:50 PM63 °FClear.14 mph77%30.18 "Hg10 mi
7:20 PM63 °FClear.15 mph83%30.18 "Hg10 mi
6:50 PM63 °FPassing clouds.15 mph83%30.15 "HgN/A
6:20 PM64 °FScattered clouds.17 mph78%30.15 "HgN/A
5:50 PM66 °FScattered clouds.13 mph83%30.12 "HgN/A
5:20 PM66 °FBroken clouds.15 mph78%30.12 "HgN/A
4:50 PM66 °FPassing clouds.13 mph83%30.12 "HgN/A
4:20 PM66 °FScattered clouds.14 mph83%30.12 "HgN/A
3:50 PM66 °FSprinkles. Broken clouds.13 mph83%30.12 "HgN/A
3:20 PM64 °FPartly sunny.12 mph88%30.09 "HgN/A
2:50 PM64 °FPartly sunny.13 mph88%30.09 "HgN/A
2:20 PM64 °FBroken clouds.16 mph83%30.09 "HgN/A
Weather by CustomWeather, © 2016

See weather overviewHow to use our weather pages